| time (UTC) | temp F | wind direction | speed MPH | gust MPH | rain 1hr in | rain 24hr in | rain mn in | humidity % | barometer mb |
| 20260906223948 | 41 | 263 | 2.0 | 3.0 | 0.00 | 0.00 | 0.00 | 85 | 1012.8 |
| 20260906223246 | 41 | 253 | 2.0 | 5.0 | 0.00 | 0.00 | 0.00 | 85 | 1012.7 |
| 20260906222555 | 41 | 252 | 3.0 | 5.0 | 0.00 | 0.00 | 0.00 | 85 | 1012.9 |
| 20260906221852 | 41 | 248 | 2.0 | 6.0 | 0.00 | 0.00 | 0.00 | 84 | 1012.8 |
| 20260906221150 | 41 | 262 | 3.0 | 6.0 | 0.00 | 0.00 | 0.00 | 84 | 1012.6 |
| 20260906220446 | 41 | 248 | 1.0 | 5.0 | 0.00 | 0.00 | 0.00 | 84 | 1012.6 |
| 20260906215756 | 41 | 257 | 2.0 | 2.0 | 0.00 | 0.00 | 0.00 | 84 | 1012.5 |
| 20260906215054 | 41 | 248 | 2.0 | 5.0 | 0.00 | 0.00 | 0.00 | 84 | 1012.4 |
| 20260906214353 | 42 | 256 | 2.0 | 3.0 | 0.00 | 0.00 | 0.00 | 84 | 1012.4 |
| 20260906213652 | 42 | 272 | 2.0 | 3.0 | 0.00 | 0.00 | 0.00 | 83 | 1012.4 |
| 20260906212950 | 42 | 301 | 2.0 | 5.0 | 0.00 | 0.00 | 0.00 | 83 | 1012.3 |
| 20260906212247 | 42 | 257 | 2.0 | 5.0 | 0.00 | 0.00 | 0.00 | 83 | 1012.3 |
| 20260906211557 | 42 | 276 | 1.0 | 3.0 | 0.00 | 0.00 | 0.00 | 83 | 1012.2 |
| 20260906210856 | 42 | 307 | 3.0 | 6.0 | 0.00 | 0.00 | 0.00 | 82 | 1012.2 |
| 20260906210155 | 43 | 263 | 3.0 | 5.0 | 0.00 | 0.00 | 0.00 | 82 | 1012.2 |
| 20260906205453 | 43 | 257 | 2.0 | 5.0 | 0.00 | 0.00 | 0.00 | 82 | 1012.2 |
| 20260906204751 | 43 | 283 | 2.0 | 5.0 | 0.00 | 0.00 | 0.00 | 82 | 1012.2 |
| 20260906204051 | 43 | 277 | 3.0 | 7.0 | 0.00 | 0.00 | 0.00 | 82 | 1012.1 |
| 20260906203347 | 43 | 281 | 3.0 | 3.0 | 0.00 | 0.00 | 0.00 | 82 | 1012.1 |
| 20260906202657 | 44 | 317 | 3.0 | 7.0 | 0.00 | 0.00 | 0.00 | 82 | 1012.0 |
| 20260906201954 | 44 | 299 | 3.0 | 8.0 | 0.00 | 0.00 | 0.00 | 82 | 1011.9 |
| 20260906201253 | 44 | 304 | 3.0 | 12.0 | 0.00 | 0.00 | 0.00 | 82 | 1011.7 |
| 20260906200552 | 44 | 345 | 3.0 | 5.0 | 0.00 | 0.00 | 0.00 | 82 | 1011.5 |
| 20260906195850 | 44 | 255 | 3.0 | 3.0 | 0.00 | 0.00 | 0.00 | 83 | 1011.5 |
| 20260906195148 | 44 | 326 | 2.0 | 5.0 | 0.00 | 0.00 | 0.00 | 82 | 1011.5 |
| 20260906194446 | 44 | 257 | 1.0 | 2.0 | 0.00 | 0.00 | 0.00 | 82 | 1011.4 |
| 20260906193755 | 44 | 331 | 2.0 | 5.0 | 0.00 | 0.00 | 0.00 | 82 | 1011.3 |
| 20260906193052 | 44 | 316 | 1.0 | 2.0 | 0.00 | 0.00 | 0.00 | 82 | 1011.3 |
| 20260906192349 | 44 | 291 | 2.0 | 6.0 | 0.00 | 0.00 | 0.00 | 81 | 1011.4 |
| 20260906191646 | 44 | 260 | 3.0 | 5.0 | 0.00 | 0.00 | 0.00 | 81 | 1011.3 |
| 20260906190956 | 44 | 272 | 2.0 | 2.0 | 0.00 | 0.00 | 0.00 | 81 | 1011.3 |
| 20260906190253 | 44 | 274 | 2.0 | 5.0 | 0.00 | 0.00 | 0.00 | 81 | 1011.2 |
| 20260906185552 | 45 | 248 | 2.0 | 3.0 | 0.00 | 0.00 | 0.00 | 81 | 1011.2 |
| 20260906184848 | 45 | 325 | 1.0 | 7.0 | 0.00 | 0.00 | 0.00 | 80 | 1011.1 |
| 20260906184147 | 45 | 353 | 2.0 | 6.0 | 0.00 | 0.00 | 0.00 | 80 | 1011.1 |
| 20260906183457 | 45 | 277 | 2.0 | 5.0 | 0.00 | 0.00 | 0.00 | 80 | 1011.1 |
| 20260906182754 | 45 | 358 | 3.0 | 3.0 | 0.00 | 0.00 | 0.00 | 80 | 1010.9 |
| 20260906182054 | 45 | 299 | 2.0 | 6.0 | 0.00 | 0.00 | 0.00 | 80 | 1010.8 |
| 20260906181351 | 45 | 270 | 3.0 | 6.0 | 0.00 | 0.00 | 0.00 | 80 | 1010.7 |
| 20260906180649 | 45 | 354 | 3.0 | 6.0 | 0.00 | 0.00 | 0.00 | 81 | 1010.6 |
| 20260906175947 | 45 | 353 | 2.0 | 2.0 | 0.00 | 0.00 | 0.00 | 80 | 1010.6 |
| 20260906175255 | 46 | 68 | 0.0 | 0.0 | 0.00 | 0.00 | 0.00 | 79 | 1010.5 |
| 20260906174553 | 46 | 188 | 0.0 | 3.0 | 0.00 | 0.00 | 0.00 | 78 | 1010.5 |
| 20260906173851 | 46 | 19 | 1.0 | 5.0 | 0.00 | 0.00 | 0.00 | 78 | 1010.4 |
| 20260906173148 | 47 | 31 | 2.0 | 7.0 | 0.00 | 0.00 | 0.00 | 78 | 1010.3 |
| 20260906172446 | 47 | 289 | 5.0 | 7.0 | 0.00 | 0.00 | 0.00 | 78 | 1010.3 |
| 20260906171755 | 47 | 4 | 1.0 | 6.0 | 0.00 | 0.00 | 0.00 | 77 | 1010.2 |
| 20260906171053 | 47 | 355 | 2.0 | 3.0 | 0.00 | 0.00 | 0.00 | 77 | 1010.0 |
| 20260906170351 | 47 | 35 | 1.0 | 3.0 | 0.00 | 0.00 | 0.00 | 76 | 1010.0 |
| 20260906165647 | 48 | 111 | 1.0 | 2.0 | 0.00 | 0.00 | 0.00 | 75 | 1009.9 |
| 20260906164947 | 48 | 11 | 5.0 | 7.0 | 0.00 | 0.00 | 0.00 | 74 | 1009.9 |
| 20260906164256 | 48 | 344 | 2.0 | 5.0 | 0.00 | 0.00 | 0.00 | 74 | 1009.9 |
| 20260906163554 | 49 | 301 | 2.0 | 3.0 | 0.00 | 0.00 | 0.00 | 73 | 1009.7 |
| 20260906162853 | 49 | 12 | 2.0 | 5.0 | 0.00 | 0.00 | 0.00 | 72 | 1009.6 |
| 20260906162150 | 49 | 54 | 2.0 | 3.0 | 0.00 | 0.00 | 0.00 | 72 | 1009.6 |
| 20260906161447 | 49 | 291 | 3.0 | 7.0 | 0.00 | 0.00 | 0.00 | 71 | 1009.6 |
| 20260906160756 | 50 | 73 | 5.0 | 8.0 | 0.00 | 0.00 | 0.00 | 71 | 1009.5 |
| 20260906160054 | 50 | 295 | 3.0 | 7.0 | 0.00 | 0.00 | 0.00 | 72 | 1009.4 |
| 20260906155352 | 50 | 19 | 2.0 | 5.0 | 0.00 | 0.00 | 0.00 | 71 | 1009.2 |
| 20260906154650 | 51 | 23 | 2.0 | 3.0 | 0.00 | 0.00 | 0.00 | 71 | 1009.3 |
| 20260906153948 | 51 | 84 | 3.0 | 6.0 | 0.00 | 0.00 | 0.00 | 70 | 1009.2 |
| 20260906153257 | 51 | 268 | 2.0 | 3.0 | 0.00 | 0.00 | 0.00 | 70 | 1009.1 |
| 20260906152555 | 51 | 272 | 1.0 | 3.0 | 0.00 | 0.00 | 0.00 | 69 | 1009.0 |
| 20260906151853 | 51 | 259 | 3.0 | 6.0 | 0.00 | 0.00 | 0.00 | 69 | 1008.9 |
| 20260906151152 | 51 | 310 | 2.0 | 2.0 | 0.00 | 0.00 | 0.00 | 69 | 1008.8 |
| 20260906150449 | 51 | 40 | 5.0 | 12.0 | 0.00 | 0.00 | 0.00 | 70 | 1008.8 |
| 20260906145746 | 51 | 3 | 2.0 | 5.0 | 0.00 | 0.00 | 0.00 | 69 | 1008.6 |
| 20260906145057 | 51 | 265 | 5.0 | 8.0 | 0.00 | 0.00 | 0.00 | 69 | 1008.5 |
| 20260906144356 | 51 | 254 | 5.0 | 8.0 | 0.00 | 0.00 | 0.00 | 69 | 1008.6 |
| 20260906143653 | 51 | 296 | 3.0 | 5.0 | 0.00 | 0.00 | 0.00 | 69 | 1008.6 |
| 20260906142951 | 51 | 283 | 3.0 | 5.0 | 0.00 | 0.00 | 0.00 | 68 | 1008.6 |
| 20260906142249 | 52 | 324 | 3.0 | 3.0 | 0.00 | 0.00 | 0.00 | 67 | 1008.5 |
| 20260906141546 | 52 | 309 | 5.0 | 3.0 | 0.00 | 0.00 | 0.00 | 67 | 1008.4 |
| 20260906140856 | 53 | 250 | 3.0 | 3.0 | 0.00 | 0.00 | 0.00 | 66 | 1008.3 |
| 20260906140153 | 53 | 317 | 5.0 | 5.0 | 0.00 | 0.00 | 0.00 | 65 | 1008.2 |
| 20260906135452 | 54 | 239 | 3.0 | 5.0 | 0.00 | 0.00 | 0.00 | 63 | 1008.2 |
| 20260906134750 | 55 | 264 | 6.0 | 12.0 | 0.00 | 0.00 | 0.00 | 63 | 1008.1 |
| 20260906134047 | 56 | 317 | 3.0 | 13.0 | 0.00 | 0.00 | 0.00 | 63 | 1008.0 |
| 20260906133357 | 56 | 304 | 3.0 | 9.0 | 0.00 | 0.00 | 0.00 | 64 | 1007.9 |
| 20260906132656 | 57 | 294 | 3.0 | 7.0 | 0.00 | 0.00 | 0.00 | 63 | 1007.9 |
| 20260906131955 | 55 | 336 | 5.0 | 12.0 | 0.00 | 0.00 | 0.00 | 66 | 1007.9 |
| 20260906131254 | 53 | 306 | 5.0 | 7.0 | 0.00 | 0.00 | 0.00 | 68 | 1007.9 |
| 20260906130604 | 54 | 4 | 5.0 | 8.0 | 0.00 | 0.00 | 0.00 | 66 | 1007.8 |
| 20260906125849 | 55 | 20 | 3.0 | 7.0 | 0.00 | 0.00 | 0.00 | 66 | 1007.6 |
| 20260906125147 | 56 | 305 | 3.0 | 8.0 | 0.00 | 0.00 | 0.00 | 66 | 1007.6 |
| 20260906124446 | 55 | 6 | 3.0 | 5.0 | 0.00 | 0.00 | 0.00 | 65 | 1007.3 |
| 20260906123756 | 55 | 306 | 2.0 | 8.0 | 0.00 | 0.00 | 0.00 | 65 | 1007.3 |
| 20260906123052 | 56 | 277 | 3.0 | 5.0 | 0.00 | 0.00 | 0.00 | 65 | 1007.2 |
| 20260906122351 | 56 | 239 | 5.0 | 9.0 | 0.00 | 0.00 | 0.00 | 65 | 1007.3 |
| 20260906121648 | 56 | 0 | 5.0 | 9.0 | 0.00 | 0.00 | 0.00 | 63 | 1007.2 |
| 20260906120947 | 58 | 257 | 6.0 | 7.0 | 0.00 | 0.00 | 0.00 | 63 | 1007.1 |
| 20260906120246 | 58 | 283 | 3.0 | 7.0 | 0.00 | 0.00 | 0.00 | 64 | 1007.0 |
| 20260906115556 | 56 | 20 | 3.0 | 7.0 | 0.00 | 0.00 | 0.00 | 65 | 1006.9 |
| 20260906114854 | 57 | 223 | 5.0 | 18.0 | 0.00 | 0.00 | 0.00 | 65 | 1006.8 |
| 20260906114152 | 57 | 325 | 6.0 | 13.0 | 0.00 | 0.00 | 0.00 | 64 | 1006.9 |
| 20260906113451 | 58 | 279 | 3.0 | 3.0 | 0.00 | 0.00 | 0.00 | 64 | 1006.7 |
| 20260906112749 | 58 | 280 | 3.0 | 3.0 | 0.00 | 0.00 | 0.00 | 65 | 1006.6 |
| 20260906112046 | 57 | 12 | 2.0 | 5.0 | 0.00 | 0.00 | 0.00 | 66 | 1006.5 |
| 20260906111356 | 56 | 288 | 5.0 | 6.0 | 0.00 | 0.00 | 0.00 | 65 | 1006.5 |
| 20260906110654 | 56 | 202 | 5.0 | 3.0 | 0.00 | 0.00 | 0.00 | 65 | 1006.2 |
| 20260906105950 | 56 | 202 | 5.0 | 3.0 | 0.00 | 0.00 | 0.00 | 65 | 1006.2 |
| 20260906105249 | 56 | 98 | 3.0 | 9.0 | 0.00 | 0.00 | 0.00 | 66 | 1006.1 |
| 20260906104557 | 56 | 11 | 3.0 | 7.0 | 0.00 | 0.00 | 0.00 | 66 | 1005.9 |
| 20260906103857 | 56 | 20 | 5.0 | 9.0 | 0.00 | 0.00 | 0.00 | 65 | 1005.9 |
| 20260906103155 | 57 | 273 | 3.0 | 7.0 | 0.00 | 0.00 | 0.00 | 65 | 1005.7 |
| 20260906102452 | 58 | 2 | 5.0 | 15.0 | 0.00 | 0.00 | 0.00 | 66 | 1005.6 |
| 20260906101750 | 57 | 19 | 5.0 | 5.0 | 0.00 | 0.00 | 0.00 | 66 | 1005.5 |
| 20260906101048 | 56 | 277 | 3.0 | 7.0 | 0.00 | 0.00 | 0.00 | 68 | 1005.5 |
| 20260906100347 | 55 | 170 | 5.0 | 7.0 | 0.00 | 0.00 | 0.00 | 68 | 1005.3 |
| 20260906095656 | 55 | 242 | 2.0 | 3.0 | 0.00 | 0.00 | 0.00 | 70 | 1005.2 |
| 20260906094954 | 55 | 286 | 5.0 | 7.0 | 0.00 | 0.00 | 0.00 | 69 | 1005.2 |
| 20260906094252 | 55 | 277 | 3.0 | 7.0 | 0.00 | 0.00 | 0.00 | 72 | 1005.0 |
| 20260906093550 | 55 | 263 | 3.0 | 3.0 | 0.00 | 0.00 | 0.00 | 72 | 1005.1 |
| 20260906092848 | 54 | 288 | 2.0 | 5.0 | 0.00 | 0.00 | 0.00 | 73 | 1005.1 |
| 20260906092146 | 53 | 323 | 2.0 | 5.0 | 0.00 | 0.00 | 0.00 | 74 | 1005.1 |
| 20260906091454 | 52 | 273 | 2.0 | 5.0 | 0.00 | 0.00 | 0.00 | 75 | 1005.0 |
| 20260906090752 | 52 | 251 | 6.0 | 12.0 | 0.00 | 0.00 | 0.00 | 76 | 1004.9 |
| 20260906090051 | 53 | 248 | 3.0 | 8.0 | 0.00 | 0.00 | 0.00 | 76 | 1004.8 |
| 20260906085348 | 52 | 269 | 2.0 | 5.0 | 0.00 | 0.00 | 0.00 | 76 | 1004.7 |
| 20260906084657 | 53 | 262 | 3.0 | 6.0 | 0.00 | 0.00 | 0.00 | 76 | 1004.6 |
| 20260906083955 | 53 | 250 | 3.0 | 8.0 | 0.00 | 0.00 | 0.00 | 75 | 1004.5 |
| 20260906083254 | 53 | 260 | 5.0 | 6.0 | 0.00 | 0.00 | 0.00 | 73 | 1004.3 |
| 20260906082551 | 54 | 269 | 3.0 | 5.0 | 0.00 | 0.00 | 0.00 | 72 | 1004.3 |
| 20260906081848 | 55 | 270 | 6.0 | 8.0 | 0.00 | 0.00 | 0.00 | 71 | 1004.2 |
| 20260906081146 | 55 | 277 | 2.0 | 7.0 | 0.00 | 0.00 | 0.00 | 72 | 1004.1 |
| 20260906080455 | 54 | 257 | 3.0 | 5.0 | 0.00 | 0.00 | 0.00 | 74 | 1004.1 |
| 20260906075752 | 54 | 261 | 1.0 | 6.0 | 0.00 | 0.00 | 0.00 | 74 | 1004.0 |
| 20260906075051 | 54 | 248 | 3.0 | 2.0 | 0.00 | 0.00 | 0.00 | 74 | 1003.9 |
| 20260906074348 | 53 | 254 | 3.0 | 7.0 | 0.00 | 0.00 | 0.00 | 75 | 1003.8 |
| 20260906073646 | 52 | 312 | 3.0 | 6.0 | 0.00 | 0.00 | 0.00 | 75 | 1003.7 |
| 20260906072954 | 53 | 318 | 5.0 | 10.0 | 0.00 | 0.00 | 0.00 | 75 | 1003.5 |
| 20260906072253 | 53 | 248 | 3.0 | 12.0 | 0.00 | 0.00 | 0.00 | 76 | 1003.4 |
| 20260906071551 | 52 | 248 | 5.0 | 6.0 | 0.00 | 0.00 | 0.00 | 76 | 1003.4 |
| 20260906070848 | 51 | 255 | 3.0 | 6.0 | 0.00 | 0.00 | 0.00 | 76 | 1003.3 |
| 20260906070146 | 51 | 248 | 7.0 | 6.0 | 0.00 | 0.00 | 0.00 | 78 | 1003.2 |
| 20260906065456 | 51 | 265 | 6.0 | 6.0 | 0.00 | 0.00 | 0.00 | 79 | 1003.1 |
| 20260906064755 | 51 | 248 | 2.0 | 3.0 | 0.00 | 0.00 | 0.00 | 78 | 1003.1 |
| 20260906064053 | 50 | 249 | 2.0 | 16.0 | 0.00 | 0.00 | 0.00 | 80 | 1003.2 |
| 20260906063352 | 50 | 248 | 3.0 | 3.0 | 0.00 | 0.00 | 0.00 | 80 | 1003.2 |
| 20260906062650 | 50 | 254 | 8.0 | 13.0 | 0.00 | 0.00 | 0.00 | 82 | 1003.1 |
| 20260906061948 | 49 | 248 | 5.0 | 8.0 | 0.00 | 0.00 | 0.00 | 83 | 1003.1 |
| 20260906061309 | 49 | 248 | 3.0 | 12.0 | 0.00 | 0.00 | 0.00 | 84 | 1003.0 |
| 20260906060556 | 49 | 248 | 3.0 | 10.0 | 0.00 | 0.00 | 0.00 | 84 | 1003.0 |
| 20260906055855 | 49 | 248 | 3.0 | 3.0 | 0.00 | 0.00 | 0.00 | 83 | 1002.9 |
| 20260906055154 | 49 | 248 | 1.0 | 3.0 | 0.00 | 0.00 | 0.00 | 84 | 1002.8 |
| 20260906054452 | 49 | 248 | 2.0 | 7.0 | 0.00 | 0.00 | 0.00 | 84 | 1002.8 |
| 20260906053748 | 48 | 248 | 3.0 | 6.0 | 0.00 | 0.00 | 0.00 | 84 | 1002.7 |
| 20260906053046 | 48 | 248 | 5.0 | 7.0 | 0.00 | 0.00 | 0.00 | 84 | 1002.6 |
| 20260906052355 | 48 | 248 | 3.0 | 5.0 | 0.00 | 0.00 | 0.00 | 84 | 1002.6 |
| 20260906051652 | 48 | 248 | 6.0 | 7.0 | 0.00 | 0.00 | 0.00 | 84 | 1002.5 |
| 20260906050951 | 48 | 248 | 2.0 | 5.0 | 0.00 | 0.00 | 0.00 | 84 | 1002.5 |
| 20260906050248 | 48 | 248 | 2.0 | 2.0 | 0.00 | 0.00 | 0.00 | 85 | 1002.5 |
| 20260906045546 | 48 | 248 | 3.0 | 9.0 | 0.00 | 0.00 | 0.00 | 85 | 1002.5 |
| 20260906044857 | 48 | 248 | 5.0 | 6.0 | 0.00 | 0.00 | 0.00 | 85 | 1002.5 |
| 20260906044155 | 48 | 248 | 5.0 | 10.0 | 0.00 | 0.00 | 0.00 | 85 | 1002.6 |
| 20260906043453 | 48 | 248 | 3.0 | 2.0 | 0.00 | 0.00 | 0.00 | 85 | 1002.5 |
| 20260906042751 | 48 | 248 | 1.0 | 1.0 | 0.00 | 0.00 | 0.00 | 85 | 1002.4 |
| 20260906042051 | 47 | 248 | 5.0 | 9.0 | 0.00 | 0.00 | 0.00 | 85 | 1002.4 |
| 20260906041348 | 46 | 248 | 2.0 | 3.0 | 0.00 | 0.00 | 0.00 | 85 | 1002.3 |
| 20260906040646 | 46 | 248 | 5.0 | 6.0 | 0.00 | 0.00 | 0.00 | 86 | 1002.1 |
| 20260906035955 | 46 | 248 | 7.0 | 8.0 | 0.00 | 0.00 | 0.00 | 86 | 1002.1 |
| 20260906035255 | 46 | 248 | 5.0 | 8.0 | 0.00 | 0.00 | 0.00 | 86 | 1001.8 |
| 20260906034552 | 47 | 248 | 6.0 | 6.0 | 0.00 | 0.00 | 0.00 | 85 | 1001.8 |
| 20260906033851 | 47 | 248 | 5.0 | 6.0 | 0.00 | 0.00 | 0.00 | 85 | 1001.7 |
| 20260906033148 | 48 | 248 | 3.0 | 6.0 | 0.00 | 0.00 | 0.00 | 85 | 1001.6 |
| 20260906032447 | 48 | 248 | 2.0 | 9.0 | 0.00 | 0.00 | 0.00 | 85 | 1001.6 |
| 20260906031746 | 49 | 248 | 3.0 | 12.0 | 0.00 | 0.00 | 0.00 | 85 | 1001.5 |
| 20260906031056 | 49 | 248 | 5.0 | 7.0 | 0.00 | 0.00 | 0.00 | 85 | 1001.3 |
| 20260906030354 | 49 | 248 | 2.0 | 3.0 | 0.00 | 0.00 | 0.00 | 85 | 1001.3 |
| 20260906025652 | 49 | 248 | 2.0 | 6.0 | 0.00 | 0.00 | 0.00 | 85 | 1001.3 |
| 20260906024950 | 49 | 248 | 6.0 | 6.0 | 0.00 | 0.00 | 0.00 | 85 | 1001.2 |
| 20260906024246 | 49 | 248 | 3.0 | 5.0 | 0.00 | 0.00 | 0.00 | 84 | 1001.0 |
| 20260906023556 | 49 | 248 | 2.0 | 3.0 | 0.00 | 0.00 | 0.00 | 85 | 1000.9 |
| 20260906022854 | 49 | 248 | 3.0 | 5.0 | 0.00 | 0.00 | 0.00 | 85 | 1000.9 |
| 20260906022151 | 49 | 248 | 5.0 | 9.0 | 0.00 | 0.00 | 0.00 | 85 | 1000.8 |
| 20260906021450 | 49 | 248 | 3.0 | 6.0 | 0.00 | 0.00 | 0.00 | 85 | 1000.7 |
| 20260906020747 | 49 | 248 | 2.0 | 3.0 | 0.00 | 0.00 | 0.00 | 85 | 1000.6 |
| 20260906020057 | 49 | 248 | 2.0 | 6.0 | 0.00 | 0.00 | 0.00 | 85 | 1000.6 |
| 20260906015355 | 49 | 248 | 2.0 | 5.0 | 0.00 | 0.00 | 0.00 | 85 | 1000.4 |
| 20260906014652 | 49 | 248 | 3.0 | 5.0 | 0.00 | 0.00 | 0.00 | 85 | 1000.5 |
| 20260906013949 | 49 | 248 | 3.0 | 7.0 | 0.00 | 0.00 | 0.00 | 85 | 1000.5 |
| 20260906013248 | 49 | 248 | 2.0 | 3.0 | 0.00 | 0.00 | 0.00 | 85 | 1000.5 |
| 20260906012547 | 49 | 248 | 2.0 | 2.0 | 0.00 | 0.00 | 0.00 | 85 | 1000.5 |
| 20260906011847 | 49 | 248 | 5.0 | 6.0 | 0.00 | 0.00 | 0.00 | 85 | 1000.1 |
| 20260906011155 | 50 | 248 | 3.0 | 3.0 | 0.00 | 0.00 | 0.00 | 85 | 1000.1 |
| 20260906010453 | 50 | 248 | 1.0 | 1.0 | 0.00 | 0.00 | 0.00 | 85 | 1000.1 |
| 20260906005750 | 50 | 248 | 1.0 | 5.0 | 0.00 | 0.00 | 0.00 | 85 | 1000.0 |
| 20260906005047 | 50 | 248 | 1.0 | 5.0 | 0.00 | 0.00 | 0.00 | 85 | 1000.0 |
| 20260906004357 | 50 | 248 | 2.0 | 6.0 | 0.00 | 0.00 | 0.00 | 85 | 999.9 |
| 20260906003654 | 50 | 248 | 1.0 | 2.0 | 0.00 | 0.00 | 0.00 | 85 | 999.9 |
| 20260906002952 | 50 | 248 | 3.0 | 6.0 | 0.00 | 0.00 | 0.00 | 85 | 999.8 |
| 20260906002250 | 50 | 248 | 1.0 | 3.0 | 0.00 | 0.00 | 0.00 | 85 | 999.7 |
| 20260906001549 | 50 | 248 | 1.0 | 3.0 | 0.00 | 0.00 | 0.00 | 85 | 999.7 |
| 20260906000848 | 50 | 248 | 3.0 | 7.0 | 0.00 | 0.00 | 0.00 | 85 | 999.7 |
| 20260906000156 | 50 | 248 | 3.0 | 7.0 | 0.00 | 0.00 | 0.00 | 85 | 999.7 |
| 20260905235454 | 50 | 248 | 1.0 | 2.0 | 0.00 | 0.00 | 0.00 | 85 | 999.6 |
| 20260905234753 | 50 | 248 | 2.0 | 3.0 | 0.00 | 0.00 | 0.00 | 85 | 999.5 |
| 20260905234050 | 51 | 248 | 2.0 | 1.0 | 0.00 | 0.00 | 0.00 | 85 | 999.4 |
| 20260905233349 | 51 | 248 | 2.0 | 3.0 | 0.00 | 0.00 | 0.00 | 85 | 999.3 |
| 20260905232647 | 51 | 248 | 5.0 | 10.0 | 0.00 | 0.00 | 0.00 | 85 | 999.2 |
| 20260905232009 | 51 | 248 | 3.0 | 9.0 | 0.00 | 0.00 | 0.00 | 85 | 999.2 |
| 20260905231255 | 51 | 248 | 1.0 | 5.0 | 0.00 | 0.00 | 0.00 | 85 | 999.2 |
| 20260905230551 | 51 | 248 | 3.0 | 3.0 | 0.00 | 0.00 | 0.00 | 85 | 999.1 |
| 20260905225850 | 51 | 248 | 2.0 | 3.0 | 0.00 | 0.00 | 0.00 | 84 | 999.0 |
| 20260905225148 | 51 | 248 | 1.0 | 3.0 | 0.00 | 0.00 | 0.00 | 84 | 999.0 |
| 20260905224446 | 51 | 248 | 1.0 | 3.0 | 0.00 | 0.00 | 0.00 | 84 | 998.9 |